{"data":{"norad_id":66413,"epoch":"2026-05-25T00:12:06.251616Z","epoch_age_seconds":71328,"freshness":"FRESH","line1":"1 66413U 25258B   26145.00840569 -.00000082  00000+0  91142-4 0  9993","line2":"2 66413  50.0029  19.0050 0001058  56.7805 303.3168 13.29323118 26643","mean_motion":13.29323118,"eccentricity":0.0001058,"inclination_deg":50.0029,"raan_deg":19.005,"arg_perigee_deg":56.7805,"mean_anomaly_deg":303.3168,"bstar":9.1142e-5,"rev_number":2664,"period_min":108.32580736025,"perigee_km":1148.5210469377,"apogee_km":1150.1138562997,"semimajor_km":7527.4544516187,"source":"CELESTRAK","updated_at":"2026-05-25T13:38:06.205482Z"}}